Location: Wells
(51.2093°N, 2.6446°W)
Time: 07:30:12
(UTC+01:00)

PCSat - Pass Details

Date: 18 March 2026
Orbit: 780 x 790 km, 67.1° (Epoch: 13 April)

Event Time Altitude Azimuth Distance (km) Brightness Sun altitude
Exits shadow 02:16:28 10° 322° (NW) 2,396 12.2 -34.0°
Reaches altitude 10° 02:16:38 10° 324° (NW) 2,364 12.2 -34.0°
Maximum altitude 02:19:40 15° 358° (N) 2,040 12.2 -33.7°
Drops below altitude 10° 02:22:42 10° 32° (NNE) 2,365 12.9 -33.4°
Sets 02:26:15 0° 56° (NE) 3,294 13.8 -33.1°
